Showing default

SPACEMOBILE-006, 67232

Orbit data source: Space-Track

SPACEMOBILE-006, 67232 is a payload satellite owned by AST & Science (US) in LEO that was launched on Wed, 24 Dec 2025 UTC via a LVM3 launch vehicle from the Sirharikota (SRI). Payload-class satellites include a variety of spacecraft equipped with specific instruments for various scientific and technological missions. These include communications satellites like Starlink; space stations such as the ISS; scientific satellites like the Hubble; Earth observation satellites from companies like Planet Labs, Umbra, and HawkEye 360; GPS; miniature CubeSats for education and research; and military/defense satellites.

Loading next visibility...
Identifier
67232, 2025-309A
Orbit
LEO
Country
Flag of USUS
Related business
Manufacturer
AST & Science
Mission
Operational Commercial Communications
Bus & Motor
BB BLOCK-2, EP
Mass
5,850 kg wet, 5,830 kg dry
Launch date (UTC)
2025-12-24 (9 months ago)
Launch vehicle
LVM3
Launch site
Sirharikota (SRI)
Object type
Payload
Rocket body
Debris
Shape & HBR
Cyl + 2 Pan + 1 Plate, 14.5 m
Radar Cross Section
24.992 m², Large (>1 m²)

Expand to show TLE details & history
Last TLE update: 14 hours ago

TLE from 14 hours ago
0 SPACEMOBILE-006
1 67232U 25309A   26253.39594899  .00001476  00000-0  85134-4 0  9996
2 67232  52.9947 301.2448 0011508  41.2332 318.9529 15.18870356 39542
Epoch: 2026-09-10T09:30Z
TLE epoch observation values (Epoch: 2026-09-10T09:30:09.992Z)
Latitude
-0.00002°
Longitude
169.26889°
Altitude
504.158 km
Speed
7.617 km/s
True Right ascension
20h 04m 58s
True Declination
0° 00' 00"
Sunlit
Object was in full shadow at epoch
Visualization orbit readout
Latitude
Unknown
Longitude
Unknown
Altitude
Unknown
Speed
Unknown
Apparent Right ascension
Unknown
Apparent Declination
Unknown
Sunlit
N/A
Visualization observer readout
Local Sidereal Time
15:33:02
Azimuth
Unknown
Elevation
Unknown
Doppler factor
Unknown
Orbital elements
Apogee altitude
517.462 km
Perigee altitude
501.609 km
Semi-major axis
6,887.672 km
Eccentricity
0.00115
Inclination
52.9947°
RAAN
301.2448°
Arg. of periapsis
41.2332°
True anomaly
318.86621°
Mean anomaly
318.9529°
Eccentric anomaly
318.90956°
Mean motion
3.79695 °/min
Orbital period
94.81 mins
BSTAR
0.000085134
Loading maneuver chart data...
Computing Atmospheric mass density...
Loading historical data...
Loading historical data...
Loading historical data...
Loading historical data...
Loading historical data...
Loading historical data...
Loading historical data...
Other satellites on launch #309 in the year 2025 (2025-12-24 UTC)

Documentation

Showing up to 5 results
|